THORAD AGENA D DEB, 19250

Orbit data source: Space-Track

THORAD AGENA D DEB, 19250 is space debris in SSO originally from a launch on Wed, 08 Apr 1970 UTC launched from the Air Force Western Test Range (AFWTR). Debris objects in space refer to the collection of defunct objects orbiting the Earth. Examples of debris include non-operational satellites, rocket bodies, and fragments generated from explosions, collisions, or faulty payload assembly.

Loading next visibility...
Identifier
19250, 1970-025PU
Orbit
SSO
Country
Flag of USUS
Related business
Manufacturer
Unknown
Mission
Spacecraft
Bus & Motor
Unknown
Mass
Unknown
Launch date (UTC)
1970-04-08 (56 years ago)
Launch vehicle
Unknown
Launch site
Air Force Western Test Range (AFWTR)
Object type
Payload
Rocket body
Debris
Shape & HBR
Unknown shape, 0.1 m
Radar Cross Section
Medium (>0.1 m² and <1 m²)

Expand to show TLE details & history
Last TLE update: 13 hours ago

TLE from 13 hours ago
0 THORAD AGENA D DEB
1 19250U 70025PU  26237.56533748  .00001980  00000-0  17251-2 0  9998
2 19250  99.4833 346.5567 0163587 293.0278 132.7986 13.81275564894900
Epoch: 2026-08-25T13:34Z
TLE epoch observation values (Epoch: 2026-08-25T13:34:05.158Z)
Latitude
65.47387°
Longitude
147.84481°
Altitude
1,053.211 km
Speed
7.29 km/s
True Right ascension
21h 40m 47s
True Declination
65° 20' 56"
Sunlit
Object was in daylight at epoch
Visualization orbit readout
Latitude
Unknown
Longitude
Unknown
Altitude
Unknown
Speed
Unknown
Apparent Right ascension
Unknown
Apparent Declination
Unknown
Sunlit
N/A
Visualization observer readout
Local Sidereal Time
17:38:25
Azimuth
Unknown
Elevation
Unknown
Doppler factor
Unknown
Orbital elements
Apogee altitude
1,076.6 km
Perigee altitude
836.626 km
Semi-major axis
7,334.75 km
Eccentricity
0.01636
Inclination
99.4833°
RAAN
346.5567°
Arg. of periapsis
293.0278°
True anomaly
134.15507°
Mean anomaly
132.7986°
Eccentric anomaly
133.47872°
Mean motion
3.45514 °/min
Orbital period
104.19 mins
BSTAR
0.0017251
Loading maneuver chart data...
Computing Atmospheric mass density...

Documentation

Showing up to 5 results
|